| time (UTC) | temp C | wind direction | speed KPH | gust KPH | rain 1hr cm | rain 24hr cm | rain mn cm | humidity % | barometer mb |
| 20260503191540 | 16 | 225 | 4.8 | 19.3 | 0.00 | 0.00 | 0.00 | 41 | 1115.3 |
| 20260503190030 | 16 | 251 | 6.4 | 12.9 | 0.00 | 0.00 | 0.00 | 41 | 1115.4 |
| 20260503184539 | 16 | 273 | 0.0 | 8.0 | 0.00 | 0.00 | 0.00 | 41 | 1115.6 |
| 20260503183107 | 15 | 244 | 6.4 | 17.7 | 0.00 | 0.00 | 0.00 | 42 | 1116.0 |
| 20260503180041 | 16 | 279 | 4.8 | 11.3 | 0.00 | 0.00 | 0.00 | 39 | 1116.4 |
| 20260503171530 | 15 | 212 | 3.2 | 11.3 | 0.00 | 0.00 | 0.00 | 40 | 1117.0 |
| 20260503160148 | 13 | 184 | 1.6 | 8.0 | 0.00 | 0.00 | 0.00 | 42 | 1117.9 |
| 20260503130149 | 4 | 239 | 1.6 | 4.8 | 0.00 | 0.00 | 0.00 | 95 | 1117.7 |
| 20260503081539 | 2 | 327 | 0.0 | 1.6 | 0.00 | 0.00 | 0.00 | 88 | 1114.6 |
| 20260503080143 | 2 | 315 | 0.0 | 0.0 | 0.00 | 0.00 | 0.00 | 88 | 1114.4 |
| 20260503071539 | 3 | 315 | 0.0 | 3.2 | 0.00 | 0.00 | 0.00 | 86 | 1114.1 |
| 20260503054532 | 5 | 315 | 0.0 | 0.0 | 0.00 | 0.00 | 0.00 | 81 | 1114.0 |
| 20260503053032 | 5 | 315 | 0.0 | 0.0 | 0.00 | 0.00 | 0.00 | 79 | 1114.1 |
| 20260503051540 | 5 | 315 | 0.0 | 0.0 | 0.00 | 0.00 | 0.00 | 76 | 1114.0 |
| 20260503050031 | 6 | 315 | 0.0 | 0.0 | 0.00 | 0.00 | 0.00 | 74 | 1113.9 |
| 20260503044650 | 7 | 315 | 0.0 | 0.0 | 0.00 | 0.00 | 0.00 | 71 | 1113.9 |
| 20260503043038 | 7 | 315 | 0.0 | 1.6 | 0.00 | 0.00 | 0.00 | 69 | 1113.8 |
| 20260503041531 | 8 | 315 | 0.0 | 0.0 | 0.00 | 0.00 | 0.00 | 65 | 1113.7 |
| 20260503040047 | 8 | 324 | 0.0 | 0.0 | 0.00 | 0.00 | 0.00 | 62 | 1113.7 |
| 20260503034538 | 8 | 353 | 0.0 | 3.2 | 0.00 | 0.00 | 0.00 | 62 | 1113.6 |
| 20260503031530 | 10 | 359 | 0.0 | 6.4 | 0.00 | 0.00 | 0.00 | 57 | 1113.5 |
| 20260503030034 | 9 | 345 | 3.2 | 11.3 | 0.00 | 0.00 | 0.00 | 59 | 1113.6 |
| 20260503024532 | 9 | 356 | 3.2 | 8.0 | 0.00 | 0.00 | 0.00 | 60 | 1113.4 |
| 20260503023041 | 9 | 360 | 0.0 | 1.6 | 0.00 | 0.00 | 0.00 | 59 | 1113.2 |
| 20260503021528 | 9 | 359 | 0.0 | 4.8 | 0.00 | 0.00 | 0.00 | 60 | 1113.0 |
| 20260503020106 | 8 | 336 | 0.0 | 1.6 | 0.00 | 0.00 | 0.00 | 61 | 1112.9 |
| 20260503014642 | 9 | 308 | 1.6 | 6.4 | 0.00 | 0.00 | 0.00 | 61 | 1112.7 |
| 20260503013039 | 9 | 344 | 0.0 | 3.2 | 0.00 | 0.00 | 0.00 | 59 | 1112.5 |
| 20260503011538 | 10 | 337 | 0.0 | 1.6 | 0.00 | 0.00 | 0.00 | 55 | 1112.2 |
| 20260503010032 | 11 | 360 | 0.0 | 1.6 | 0.00 | 0.00 | 0.00 | 52 | 1111.9 |
| 20260503004616 | -17 | 0 | 0.0 | 0.0 | 0.00 | 0.00 | 0.00 | 100 | |
| 20260503003029 | 11 | 348 | 0.0 | 3.2 | 0.00 | 0.00 | 0.00 | 50 | 1111.7 |
| 20260503001539 | 13 | 255 | 0.0 | 0.0 | 0.00 | 0.00 | 0.00 | 46 | 1111.6 |
| 20260503000103 | 8 | 90 | 1.6 | 4.8 | 0.00 | 0.00 | 0.00 | 70 | 1111.6 |